Location: Kanab
(37.0481°N, 112.5285°W)
Time: 01:55:42
(UTC-07:00)

BlueWalker 3 - Visible Passes

Search period start: 04 December 2022 00:00
Search period end: 14 December 2022 00:00
Orbit: 501 x 519 km, 53.2° (Epoch: 03 December)

Date Brightness Start Highest point End Pass type
(mag) Time Alt. Az. Time Alt. Az. Time Alt. Az.
06 Dec 4.2 18:59:42 10° NNW 19:00:42 14° N 19:00:42 14° N visible
07 Dec 3.7 18:41:15 10° NNW 18:43:20 18° NNE 18:43:20 18° NNE visible
08 Dec 3.4 18:22:47 10° NNW 18:25:45 20° NNE 18:26:08 20° NE visible
08 Dec 5.1 20:00:51 10° NW 20:00:59 11° NW 20:00:59 11° NW visible
09 Dec 3.4 18:04:19 10° NNW 18:07:21 21° NNE 18:09:07 16° ENE visible
09 Dec 4.2 19:42:27 10° NW 19:43:59 22° WNW 19:43:59 22° WNW visible
10 Dec 3.3 17:45:51 10° NNW 17:48:58 22° NNE 17:52:04 10° E visible
10 Dec 2.9 19:24:03 10° WNW 19:27:15 46° W 19:27:15 46° W visible
11 Dec 2.8 19:05:39 10° WNW 19:09:24 47° SW 19:10:56 29° S visible
12 Dec 3.1 18:47:14 10° WNW 18:50:57 43° SW 18:54:38 10° SSE visible
13 Dec 3.3 18:28:50 10° WNW 18:32:30 40° SW 18:36:08 10° SSE visible
